Location: Marcé
(47.5801°N, 0.3280°W)
Time: 07:43:36
(UTC+01:00)

Vanguard 1 Rocket - Pass Details

Date: 03 December 2021
Orbit: 651 x 4224 km, 34.3° (Epoch: 23 January)

Event Time Altitude Azimuth Distance (km) Brightness Sun altitude
Exits shadow 05:57:55 24° 241° (WSW) 4,054 10.2 -24.9°
Maximum altitude 06:08:09 53° 178° (S) 3,716 10.4 -23.2°
Drops below altitude 10° 06:31:22 10° 111° (ESE) 7,391 13.2 -19.4°
Sets 06:37:36 0° 108° (ESE) 8,466 14.0 -18.4°
